Regional Weather Roundup
Issued by NWS

Home | Current Version | Previous Version | Graphics & Text | Print | Product List | Glossary On
Versions: 1 2 3 4 5 6 7 8 9 10 11 12 13 14 15 16 17 18 19 20 21 22 23 24 25 26 27 28 29 30 31 32 33 34 35 36 37 38 39 40 41 42 43 44 45 46 47 48 49 50
000
ASUS45 KTFX 210210
RWRMT
MONTANA REGIONAL WEATHER ROUNDUP
NATIONAL WEATHER SERVICE GREAT FALLS MT
700 PM MST FRI JAN 20 2017

NOTE: "FAIR" INDICATES FEW OR NO CLOUDS BELOW 12000 FEET WITH NO
SIGNIFICANT WEATHER AND/OR OBSTRUCTIONS TO VISIBILITY.

MTZ001>007-043-210300-
WEST OF THE DIVIDE

CITY           SKY/WX    TMP DP  RH WIND       PRES   REMARKS
KALISPELL      CLEAR     19  17  92 CALM      29.32S
MISSOULA       PTCLDY    26  24  92 NW5       29.32F
BUTTE          CLEAR     24  13  62 NE5       29.32F
MULLAN PASS    CLOUDY    25  22  88 SE8       29.23S WCI  16
ANACONDA         N/A     27  18  69 CALM      29.32F
DEER LODGE       N/A     28  18  64 SW8       29.35S WCI  20
EUREKA           N/A     28  25  86 CALM      29.34S
HAMILTON         N/A     25  23  93 CALM      29.31
PLAINS           N/A     24  20  85 CALM      29.37S VSB 0
RONAN            N/A     15  12  88 CALM      29.40F VSB 0
THOMPSON FALLS   N/A     34  29  82 E12       29.39  WCI  25
$$

MTZ008-052>055-210300-
SOUTHWEST MONTANA

CITY           SKY/WX    TMP DP  RH WIND       PRES   REMARKS
BOZEMAN        PTCLDY    20  16  84 S6        29.37S WCI  12
DILLON         CLOUDY    22  15  75 N5        29.32F
W YELLOWSTONE  CLOUDY    25  19  80 S3        29.38F
ENNIS          CLOUDY    25  16  68 S16       29.40S WCI  12
TWIN BRIDGES     N/A     19   9  65 E6        29.41F WCI  11
$$

MTZ009-010-012-014-046-048-049-054-210300-
EAST SLOPES AND CENTRAL MONTANA

CITY           SKY/WX    TMP DP  RH WIND       PRES   REMARKS
CUT BANK       CLEAR     30  22  72 SE3       29.33S
GREAT FALLS    CLEAR     30  19  63 S8        29.34S WCI  22
MALMSTROM AFB  CLEAR     28  22  80 SW7       29.36R WCI  21
HELENA         CLEAR     24  20  84 SE7       29.35F WCI  16
AUGUSTA          N/A     28  22  78 SE7       29.31F WCI  20
BOWMANS CRNR     N/A     28  21  75 SE6       29.31S WCI  21
CHOTEAU          N/A     30  23  74 S6        29.34F WCI  24
CONRAD           N/A     23  20  89 CALM      29.42S
POWER            N/A     24  19  82 NE5       29.33S
RAYNESFORD       N/A     28  20  70 NE5       29.36S
ULM              N/A     30  21  68 MISG      29.35R
$$

MTZ011-013-016-021-045-047-050-051-210300-
NORTH CENTRAL MONTANA

CITY           SKY/WX    TMP DP  RH WIND       PRES   REMARKS
HAVRE          CLEAR     27  24  89 CALM      29.37F
LEWISTOWN      CLEAR     30  22  72 SE7       29.37R WCI  23
CHINOOK          N/A     28  25  86 CALM      29.38S
DENTON           N/A     32  24  74 N3        29.34R
FORT BENTON      N/A     34  27  75 MISG      29.38R
GEYSER           N/A     33  24  69 S12       29.35F WCI  25
GRASS RANGE      N/A     28  25  90 W7        29.35S WCI  21
JUDITH GAP       N/A     27  20  73 W6        29.36S WCI  21
ROY              N/A     32  27  80 MISG      29.36S
STANFORD         N/A     28  22  79 CALM      29.36R
WINIFRED         N/A     28  24  86 SE9       29.36S WCI  19
$$

MTZ017>020-022>027-061-062-210300-
NORTHEAST MONTANA

CITY           SKY/WX    TMP DP  RH WIND       PRES   REMARKS
GLASGOW        MOCLDY    33  29  85 S5        29.37R
JORDAN           N/A     33  30  88 NW5       29.38
SIDNEY         CLOUDY    33  28  81 CALM      29.35F
WOLF POINT     CLOUDY    33  28  81 SW9       29.36F WCI  25
PLENTYWOOD       N/A     30  27  86 W7        29.33F WCI  23
POPLAR           N/A     30  27  86 W5        29.37S
$$

MTZ028>42-056>058-210300-
SOUTHCENTRAL AND SOUTHEAST MONTANA

CITY           SKY/WX    TMP DP  RH WIND       PRES   REMARKS
BAKER          CLOUDY    31  28  89 W12       29.36S WCI  22
BILLINGS       CLEAR     34  27  75 SW13      29.39S WCI  25
LIVINGSTON     CLEAR     34  17  50 S14       29.37R WCI  25
MILES CITY     CLOUDY    35  31  85 W9        29.39R WCI  28
BIG TIMBER     CLEAR     32  19  59 SE5       29.40R
FORSYTH          N/A     36  36 100 W3        29.40S
HARLOWTON        N/A     29  20  69 W10       29.37S WCI  20
LAUREL           N/A     31  21  66 SW9       29.43F WCI  23
$$

REGIONAL REPORTS...DAKOTAS

CITY           SKY/WX    TMP DP  RH WIND       PRES   REMARKS
WILLISTON      CLOUDY    27  24  89 CALM      29.34F
MINOT          CLOUDY    29  27  92 S7        29.34F WCI  22
DICKINSON      CLOUDY    29  26  89 NW10      29.29F WCI  20
BEACH          CLOUDY    32  28  86 W12       29.37S WCI  23
CROSBY           N/A     23  23 100 W10       29.34S WCI  12
TIOGA            N/A     19  19 100 CALM      29.34S
WATFORD CITY     N/A     27  25  93 CALM      29.33F
BISMARCK       CLOUDY    31  30  96 W3        29.35S FOG
GRAND FORKS    CLOUDY    36  33  89 SE12      29.44F WCI  28
FARGO          CLOUDY    39  35  86 SE12      29.44F WCI  32
BUFFALO SD       N/A     35  31  85 NW17      29.27S WCI  25
RAPID CITY     CLOUDY    36  29  75 N10       29.34R WCI  28
$$

REGIONAL REPORTS...WYOMING/IDAHO/WASHINGTON

CITY           SKY/WX    TMP DP  RH WIND       PRES   REMARKS
GILLETTE       CLOUDY    33  32  96 W7        29.40S WCI  27
SHERIDAN       CLOUDY    33  28  81 S5        29.40S
BUFFALO WY     CLOUDY    33  29  85 CALM      29.40F
CODY           CLEAR     18  16  92 CALM      29.40S
YELLOWSTONE LA   N/A     13  11  92 CALM      29.39F
IDAHO FALLS    CLOUDY    15  14  95 N3        29.37F
SALMON         CLEAR     12  12 100 CALM      29.35S
BOISE          CLOUDY    37  28  70 SE9       29.25R WCI  30
SPOKANE        MOCLDY    37  30  75 NE7       29.23S WCI  32
$$

REGIONAL REPORTS...ALBERTA

CITY           SKY/WX    TMP DP  RH WIND       PRES   REMARKS
EDMONTON       CLEAR     27  14  59 SE2       29.33R
CALGARY        PTCLDY    30  18  59 CALM      29.31R
LETHBRIDGE     CLEAR     28  23  80 S12       29.32S WCI  18
MEDICINE HAT   CLEAR     32  25  74 SW2       29.34R
WATERTON GATE    N/A     28  18  64 S9          N/A  WCI  20
CARDSTON         N/A     27  21  80 SW1         N/A
MILK RIVER       N/A     25  23  93 S3          N/A
ONEFOUR          N/A     25  23  93 E7          N/A  WCI  17
$$

REGIONAL REPORTS...SASKATCHEWAN

CITY           SKY/WX    TMP DP  RH WIND       PRES   REMARKS
SWIFT CURRENT  CLOUDY    34  27  75 W10       29.30S WCI  26
REGINA         CLOUDY    25  23  93 SE6       29.32R WCI  18
SASKATOON      MOCLDY    28  27  93 NW8       29.34S WCI  20
CYPRESS HILLS    N/A     25  19  80 W3          N/A
VAL MARIE        N/A     30  25  80 SW7         N/A  WCI  23
ROCKGLEN         N/A     32  28  86 W13         N/A  WCI  22
$$



USA.gov is the U.S. government's official web portal to all federal, state and local government web resources and services.